CZ-3B R/B, 43649

Orbit data source: Space-Track

CZ-3B R/B, 43649 is space debris in HEO originally from a launch on Mon, 15 Oct 2018 UTC launched from the Xichang Space Center, China (XSC). Debris objects in space refer to the collection of defunct objects orbiting the Earth. Examples of debris include non-operational satellites, rocket bodies, and fragments generated from explosions, collisions, or faulty payload assembly.

Loading next visibility...
Identifier
43649, 2018-078C
Orbit
HEO
Country
Flag of CNCN / PRC
Related business
Manufacturer
CALT
Mission
Spacecraft
Bus & Motor
CZ-3A STAGE 3, Unknown motor
Mass
~2,800 kg wet, ~2,800 kg dry
Launch date (UTC)
2018-10-15 (7 years ago)
Launch vehicle
Unknown
Launch site
Xichang Space Center, China (XSC)
Object type
Payload
Rocket body
Debris
Shape & HBR
Cyl + 1 Nozzle, 6.2 m
Radar Cross Section
32.704 m², Large (>1 m²)

Expand to show TLE details & history
Last TLE update: 1 day ago

TLE from 1 day ago
0 CZ-3B R/B
1 43649U 18078C   25345.98043856  .00001069  00000-0  13332-2 0  9992
2 43649  54.9938 339.9391 5508463 299.2531  16.8804  4.64466175120514
Epoch: 2025-12-11T23:31Z
TLE epoch observation values (Epoch: 2025-12-11T23:31:49.891Z)
Latitude
0.00004°
Longitude
-93.94665°
Altitude
1,955.231 km
Speed
8.331 km/s
True Right ascension
22h 39m 45s
True Declination
0° 00' 00"
Sunlit
Object was in daylight at epoch
Visualization orbit readout
Latitude
Unknown
Longitude
Unknown
Altitude
Unknown
Speed
Unknown
Apparent Right ascension
Unknown
Apparent Declination
Unknown
Sunlit
N/A
Visualization observer readout
Local Sidereal Time
22:57:13
Azimuth
Unknown
Elevation
Unknown
Doppler factor
Unknown
Orbital elements
Apogee altitude
17,154.318 km
Perigee altitude
437.296 km
Semi-major axis
15,173.944 km
Eccentricity
0.55085
Inclination
54.9938°
RAAN
339.9391°
Arg. of periapsis
299.2531°
True anomaly
60.6837°
Mean anomaly
16.8804°
Eccentric anomaly
34.96928°
Mean motion
1.16117 °/min
Orbital period
310.03 mins
BSTAR
0.0013332
Loading maneuver chart data...
Computing Atmospheric mass density...
Loading historical data...
Loading historical data...
Loading historical data...
Loading historical data...
Loading historical data...
Loading historical data...
Loading historical data...
Other satellites on launch #78 in the year 2018 (2018-10-15 UTC)

Documentation

Showing up to 5 results
|